Regional Weather Roundup
Issued by NWS

Home | Current Version | Previous Version | Graphics & Text | Print | Product List | Glossary On
Versions: 1 2 3 4 5 6 7 8 9 10 11 12 13 14 15 16 17 18 19 20 21 22 23 24 25 26 27 28 29 30 31 32 33 34 35 36 37 38 39 40 41 42 43 44 45 46 47 48 49 50
000
ASUS45 KBOU 201307
RWRCO

WEATHER ROUNDUP FOR COLORADO
NATIONAL WEATHER SERVICE DENVER/BOULDER CO
700 AM MDT MON OCT 20 2014

NOTE: "FAIR" INDICATES FEW OR NO CLOUDS BELOW 12000 FEET WITH NO
SIGNIFICANT WEATHER AND/OR OBSTRUCTIONS TO VISIBILITY.

COZ001>005-013-030-031-201400-
...NORTHWEST COLORADO...

CITY           SKY/WX    TMP DP  RH WIND       PRES   REMARKS
CRAIG          CLEAR     30  26  85 CALM      30.21R
HAYDEN         CLEAR     39  28  65 E12       30.22R
MEEKER         CLEAR     36  31  82 CALM      30.21S
MOUNT WERNER   NOT AVBL
STEAMBOAT SPGS CLEAR     33  29  86 CALM      30.24S
WALDEN         PTCLDY    30  27  86 S3        30.30R
$$

COZ006>008-011-201400-
...WEST CENTRAL VALLEYS...

CITY           SKY/WX    TMP DP  RH WIND       PRES   REMARKS
GRAND JUNCTION PTCLDY    43  32  65 E3        30.14R
MONTROSE       CLEAR     44  37  76 S6        30.21R
EAGLE          CLEAR     34  32  93 CALM      30.29S
RIFLE          CLEAR     38  33  82 CALM      30.20R
DELTA          CLEAR     45  37  74 E3        30.18S
NUCLA          CLEAR     43  36  75 E3        30.23S
$$

COZ017>023-064>068-201400-
...SOUTHWEST COLORADO...

CITY           SKY/WX    TMP DP  RH WIND       PRES   REMARKS
DURANGO        CLEAR     39  37  92 NE3       30.23R
CORTEZ         MOCLDY    36  35  96 SW3       30.20S
PAGOSA SPRINGS CLEAR     37  37 100 CALM      30.29R
TELLURIDE      CLEAR     39  33  80 E6        30.35R
WOLF CREEK PAS PTCLDY    32  28  86 S8        30.47S WCI  25
$$

COZ009-010-012-014-032>034-037-058>063-201400-
...CENTRAL COLORADO...

CITY           SKY/WX    TMP DP  RH WIND       PRES   REMARKS
ASPEN          PTCLDY    36  30  79 S3        30.27S
BUENA VISTA    PTCLDY    37  31  81 N6        30.34R
COPPER MTN     CLEAR     41  27  56 S13       30.47S
BERTHOUD PASS  FAIR      32  30  93 SW12      30.51F WCI  23
COTTONWOOD PAS PTCLDY    45  32  61 CALM      30.40R
GUNNISON       CLEAR     30  27  86 CALM      30.35R
KREMMLING      CLEAR     28  25  86 CALM        N/A
LEADVILLE      CLEAR     26  25  96 NE5       30.38S WCI  20
MONARCH PASS   MOCLDY    34  30  86 SE3       30.59R
SALIDA         PTCLDY    38  33  82 W6        30.40R
SUNLIGHT       CLEAR     41  32  70 E3        30.43R
WILKERSON PASS NOT AVBL
$$

COZ069>075-201400-
...SAN LUIS VALLEY/SANGRE DE CRISTO MOUNTAINS...

CITY           SKY/WX    TMP DP  RH WIND       PRES   REMARKS
ALAMOSA        CLOUDY    35  32  88 CALM      30.29S
LA VETA PASS   PTCLDY    39  30  70 NE8       30.41R
SAGUACHE       CLEAR     39  34  81 N10       30.32R
$$

COZ035-036-038>040-201400-
...NORTHERN COLORADO FRONT RANGE...

CITY           SKY/WX    TMP DP  RH WIND       PRES   REMARKS
DENVER INTL AP PTCLDY    48  36  63 SW12      30.15F
DMNS CITY PARK   N/A     46  35  64 S3        30.17S
AURORA         PTCLDY    48  36  64 SW5       30.18S
FRONT RANGE AP CLEAR     50  39  66 SW7       30.17F
ERIE MUNI ARPT CLEAR     38  34  87 S3        30.16S
BOULDER MUN AP CLEAR     45  34  65 CALM      30.16S
CENTENNIAL     CLEAR     46  35  65 S6        30.18S
BROOMFIELD     PTCLDY    50  36  57 CALM      30.18R
FORT COLLINS   CLEAR     45  36  70 CALM      30.16S
LONGMONT       CLEAR     40  35  82 CALM      30.17S
$$

COZ041-046-047-076>085-087-088-201400-
...PIKES PEAK/PALMER DIVIDE AND SOUTHERN FOOTHILLS...

CITY           SKY/WX    TMP DP  RH WIND       PRES   REMARKS
COLO. SPRINGS  CLEAR     41  36  82 N5        30.24S
A. F. ACADEMY  CLEAR     37  33  85 N10       30.25R
ELLICOTT       NOT AVBL
FALCON         CLEAR     39  34  84 W6        30.26S
FORT CARSON    CLEAR     42  35  75 NW7       30.22R
LIMON          CLEAR     35  33  92 NW5       30.20R WCI  31
MONUMENT HILL  CLEAR     41  36  81 S9        30.24S
TRINIDAD       CLEAR     42  35  76 W12       30.22S
$$

COZ042>045-048>051-090-091-201400-
...NORTHEAST COLORADO...

CITY           SKY/WX    TMP DP  RH WIND       PRES   REMARKS
GREELEY ARPT   CLEAR     34  27  75 N5        30.16S WCI  30
AKRON          CLEAR     50  38  63 S9        30.15S
BURLINGTON     CLEAR     38  35  89 W7        30.15S
WRAY           CLEAR     37  35  93 SW6       30.14S
STERLING       CLEAR     36  36 100 CALM      30.13S
HOLYOKE        CLEAR     37  34  87 W6        30.14R
FORT MORGAN    CLEAR     40  35  81 W7        30.15F
$$

COZ086-089-092>099-201400-
...SOUTHEAST COLORADO...

CITY           SKY/WX    TMP DP  RH WIND       PRES   REMARKS
PUEBLO         CLEAR     42  36  79 W5        30.19R
LA JUNTA       CLEAR     43  39  86 W10       30.17R
LAMAR          CLEAR     38  37  97 SW6       30.14R
SPRINGFIELD      N/A     43  41  93 W5        30.17R
$$


USA.gov is the U.S. government's official web portal to all federal, state and local government web resources and services.